Aéroclub Cannes UACA

Aéroclub Cannes UACA
UACA
Approuvé A.T.O. EASA – N°FR.ATO.0108

UACA, UNION des aéroclubs
Cannes “Ailes d’Azur”, Nice “Côte d’Azur”, Grasse “St Exupery”, ACCA “Francis Séverac”

Un cache-pitot se trouve à bord de chaque avion. Pensez à le mettre en place à la fin de chaque vol !

Avant de quitter l'avion, vérifiez que vous n'emportez pas la checklist

Un vol ne s'entreprend qu'avec un pare-brise parfaitement propre, il en va de votre sécurité, et de celle des autres

Après chaque vol, merci de mettre en place les pares-soleil!


Météo à Cannes:
METAR
LFMD 011630Z AUTO 27018G28KT 230V300 CAVOK 23/09 Q1015 NOSIG =
AMD LFMD 011418Z 0114/0209 25015KT CAVOK TEMPO 0115/0119 27020G30KT BECMG 0121/0123 VRB03KT

TAF
AMD LFMD 011418Z 0114/0209 25015KT CAVOK TEMPO 0115/0119 27020G30KT BECMG 0121/0123 VRB03KT =

SR / SS: 05:30 / 17:13 UTC (LFMD 2022-10-01)